Location: Bartlow
(52.0833°N, 0.3167°E)
Time: 12:17:33
(UTC+00:00)

IDEFIX/ARIANE 42P - Pass Details

Date: 26 September 2023
Orbit: 783 x 801 km, 98.5° (Epoch: 28 November)

Event Time Altitude Azimuth Distance (km) Brightness Sun altitude
Rises 02:45:27 0° 11° (N) 3,326 6.5 -27.3°
Reaches altitude 10° 02:47:51 10° 6° (N) 2,392 5.6 -27.0°
Enters shadow 02:52:18 45° 315° (NW) 1,082 3.1 -26.5°
